Location: Aalsum
(53.3404°N, 6.0062°E)
Time: 08:43:23
(UTC+00:00)

Cosmos 1980 Rocket - Pass Details

Date: 28 January 2023
Orbit: 828 x 851 km, 71.0° (Epoch: 19 March)

Event Time Altitude Azimuth Distance (km) Brightness Sun altitude
Rises 16:50:23 0° 172° (S) 3,377 5.5 -6.1°
Reaches altitude 10° 16:53:07 10° 161° (SSE) 2,452 4.7 -6.5°
Maximum altitude 16:57:46 27° 104° (ESE) 1,556 3.2 -7.1°
Drops below altitude 10° 17:02:28 10° 49° (NE) 2,479 4.1 -7.8°
Enters shadow 17:03:27 - 44° (NE) 2,798 4.4 -7.9°
